K9BM Weather Reports


time (UTC)temp
F
wind
direction
speed
knots
gust
knots
rain 1hr
in
rain 24hr
in
rain mn
in
humidity
%
barometer
mb
20260504021504 64 264 5.2 7.0 0.00 0.00 0.00 27 1003.3
20260504021004 65 266 5.2 7.8 0.00 0.00 0.00 27 1003.3
20260504015504 66 273 6.1 10.4 0.00 0.00 0.00 26 1003.4
20260504015005 66 280 6.1 10.4 0.00 0.00 0.00 25 1003.4
20260504014005 68 277 6.1 11.3 0.00 0.00 0.00 24 1003.5
20260504013504 68 266 7.8 11.3 0.00 0.00 0.00 23 1003.5
20260504013004 68 267 7.8 11.3 0.00 0.00 0.00 23 1003.5
20260504012004 69 257 8.7 11.3 0.00 0.00 0.00 22 1003.5
20260504011504 69 277 7.8 12.2 0.00 0.00 0.00 22 1003.6
20260504011004 69 290 7.8 12.2 0.00 0.00 0.00 23 1003.7
20260504010004 70 296 8.7 12.2 0.00 0.00 0.00 23 1003.8
20260504005504 69 281 6.1 12.2 0.00 0.00 0.00 23 1003.8
20260504005004 70 277 9.6 13.0 0.00 0.00 0.00 22 1003.9
20260504004504 70 281 7.8 13.0 0.00 0.00 0.00 23 1004.0
20260504004004 70 290 7.8 13.0 0.00 0.00 0.00 23 1004.0
20260504003504 70 285 10.4 13.0 0.00 0.00 0.00 22 1004.1
20260504003004 70 286 10.4 13.0 0.00 0.00 0.00 22 1004.1
20260504002504 70 264 7.8 13.0 0.00 0.00 0.00 23 1004.1
20260504001504 70 298 8.7 12.2 0.00 0.00 0.00 23 1004.2
20260504001004 70 279 7.8 14.8 0.00 0.00 0.00 22 1004.3
20260504000004 70 278 10.4 13.9 0.00 0.00 0.00 22 1004.4
20260503235504 71 277 10.4 14.8 0.00 0.00 0.00 22 1004.5
20260503235004 71 274 8.7 14.8 0.00 0.00 0.00 21 1004.6
20260503234504 71 305 10.4 14.8 0.00 0.00 0.00 21 1004.6
20260503234004 71 300 7.8 14.8 0.00 0.00 0.00 21 1004.7
20260503233506 70 320 8.7 15.6 0.00 0.00 0.00 22 1004.7
20260503233005 70 303 8.7 18.2 0.00 0.00 0.00 22 1004.8
20260503232505 70 295 10.4 18.2 0.00 0.00 0.00 23 1004.8
20260503232005 70 285 12.2 18.2 0.00 0.00 0.00 23 1004.8
20260503231505 71 274 9.6 14.8 0.00 0.00 0.00 22 1004.9
20260503231005 71 293 9.6 15.6 0.00 0.00 0.00 22 1005.0
20260503230006 71 282 12.2 17.4 0.00 0.00 0.00 21 1005.1
20260503225506 71 293 12.2 17.4 0.00 0.00 0.00 21 1005.1
20260503225005 71 276 10.4 17.4 0.00 0.00 0.00 20 1005.1
20260503224505 71 258 10.4 17.4 0.00 0.00 0.00 20 1005.2
20260503224005 71 272 11.3 17.4 0.00 0.00 0.00 20 1005.2
20260503223506 71 272 7.8 18.2 0.00 0.00 0.00 20 1005.3
20260503223005 71 276 9.6 18.2 0.00 0.00 0.00 20 1005.3
20260503222504 71 291 9.6 18.2 0.00 0.00 0.00 20 1005.3
20260503222005 71 296 9.6 17.4 0.00 0.00 0.00 19 1005.5
20260503221505 70 265 11.3 18.2 0.00 0.00 0.00 20 1005.5
20260503221006 70 258 11.3 18.2 0.00 0.00 0.00 20 1005.5
20260503220005 70 270 10.4 15.6 0.00 0.00 0.00 20 1005.7
20260503215505 70 275 11.3 15.6 0.00 0.00 0.00 20 1005.8
20260503214505 70 287 12.2 21.7 0.00 0.00 0.00 19 1005.9
20260503213005 70 253 12.2 20.9 0.00 0.00 0.00 22 1006.2
20260503212505 70 271 12.2 20.9 0.00 0.00 0.00 20 1006.3
20260503212005 70 287 10.4 20.9 0.00 0.00 0.00 21 1006.4
20260503211505 70 285 14.8 20.9 0.00 0.00 0.00 21 1006.4
20260503211005 70 243 8.7 19.1 0.00 0.00 0.00 22 1006.4
20260503210006 70 272 9.6 15.6 0.00 0.00 0.00 24 1006.5
20260503205505 70 287 10.4 17.4 0.00 0.00 0.00 24 1006.6
20260503205005 70 294 11.3 17.4 0.00 0.00 0.00 23 1006.7
20260503204505 70 288 11.3 17.4 0.00 0.00 0.00 25 1006.7
20260503204005 69 297 10.4 17.4 0.00 0.00 0.00 25 1006.8
20260503203005 69 275 10.4 17.4 0.00 0.00 0.00 24 1006.9
20260503202505 69 241 9.6 17.4 0.00 0.00 0.00 25 1007.0
20260503202005 70 279 12.2 17.4 0.00 0.00 0.00 25 1007.0
20260503201505 69 295 9.6 15.6 0.00 0.00 0.00 25 1007.1
20260503201005 69 299 11.3 17.4 0.00 0.00 0.00 25 1007.2
20260503195505 68 259 11.3 21.7 0.00 0.00 0.00 26 1007.4
20260503195005 68 291 12.2 21.7 0.00 0.00 0.00 26 1007.4
20260503194005 68 288 11.3 17.4 0.00 0.00 0.00 28 1007.6
20260503193504 68 276 8.7 17.4 0.00 0.00 0.00 29 1007.7
20260503193005 67 288 11.3 17.4 0.00 0.00 0.00 29 1007.8
20260503192504 68 305 7.0 17.4 0.00 0.00 0.00 29 1007.9
20260503192005 67 293 10.4 17.4 0.00 0.00 0.00 29 1008.0
20260503191505 67 283 11.3 17.4 0.00 0.00 0.00 30 1008.2
20260503185505 67 261 11.3 17.4 0.00 0.00 0.00 30 1008.3
20260503185005 66 297 11.3 17.4 0.00 0.00 0.00 29 1008.5
20260503184505 66 304 10.4 17.4 0.00 0.00 0.00 28 1008.6
20260503183505 66 289 8.7 17.4 0.00 0.00 0.00 31 1008.6
20260503183005 67 253 13.0 18.2 0.00 0.00 0.00 31 1008.6
20260503182505 66 249 13.9 19.1 0.00 0.00 0.00 30 1008.7
20260503182006 66 290 8.7 19.1 0.00 0.00 0.00 31 1008.7
20260503181505 66 276 12.2 18.2 0.00 0.00 0.00 30 1008.9
20260503181005 66 274 11.3 20.9 0.00 0.00 0.00 30 1008.9
20260503180005 66 292 12.2 20.0 0.00 0.00 0.00 31 1009.0
20260503175505 65 313 11.3 20.0 0.00 0.00 0.00 31 1009.1
20260503174505 64 266 7.8 15.6 0.00 0.00 0.00 34 1009.2
20260503174006 64 251 9.6 17.4 0.00 0.00 0.00 34 1009.3
20260503173505 65 295 11.3 17.4 0.00 0.00 0.00 33 1009.4
20260503173005 64 269 10.4 17.4 0.00 0.00 0.00 36 1009.3
20260503172505 64 274 11.3 17.4 0.00 0.00 0.00 35 1009.4
20260503172005 64 261 10.4 14.8 0.00 0.00 0.00 36 1009.4
20260503171504 63 279 11.3 14.8 0.00 0.00 0.00 35 1009.5
20260503171005 63 266 10.4 15.6 0.00 0.00 0.00 37 1009.5
20260503131005 46 234 4.3 5.2 0.00 0.00 0.00 67 1011.3
20260503081505 48 219 0.0 0.0 0.00 0.00 0.00 64 1011.0
20260503081005 48 220 0.0 0.0 0.00 0.00 0.00 63 1011.1
20260503072504 50 124 7.8 11.3 0.00 0.00 0.00 57 1011.1
20260503071505 50 134 8.7 10.4 0.00 0.00 0.00 58 1011.1
20260503071005 50 136 8.7 10.4 0.00 0.00 0.00 58 1011.0
20260503055004 48 145 5.2 6.1 0.00 0.00 0.00 61 1012.0
20260503054504 49 132 3.5 6.1 0.00 0.00 0.00 59 1012.0
20260503054004 50 95 2.6 5.2 0.00 0.00 0.00 58 1012.0
20260503053505 50 94 3.5 5.2 0.00 0.00 0.00 59 1012.0
20260503053004 49 94 4.3 5.2 0.00 0.00 0.00 60 1012.0
20260503052504 49 98 2.6 5.2 0.00 0.00 0.00 60 1012.0
20260503052005 49 99 3.5 6.1 0.00 0.00 0.00 60 1012.0
20260503051504 49 99 5.2 6.1 0.00 0.00 0.00 60 1012.0
20260503051004 49 100 5.2 7.0 0.00 0.00 0.00 60 1012.0
20260503045504 49 100 6.1 7.8 0.00 0.00 0.00 61 1012.1
20260503045004 49 107 5.2 7.8 0.00 0.00 0.00 60 1012.1
20260503044504 49 119 5.2 6.1 0.00 0.00 0.00 59 1012.2
20260503044005 49 128 4.3 6.1 0.00 0.00 0.00 59 1012.1
20260503043504 49 137 4.3 6.1 0.00 0.00 0.00 60 1012.1
20260503042504 49 127 4.3 5.2 0.00 0.00 0.00 59 1012.2
20260503042004 49 97 0.9 2.6 0.00 0.00 0.00 59 1012.1
20260503041504 50 97 0.9 2.6 0.00 0.00 0.00 58 1012.0
20260503041004 50 97 1.7 2.6 0.00 0.00 0.00 58 1012.0
20260503040004 50 97 3.5 5.2 0.00 0.00 0.00 58 1011.9
20260503035504 51 97 2.6 6.1 0.00 0.00 0.00 57 1011.8
20260503035004 51 96 5.2 6.1 0.00 0.00 0.00 56 1011.7
20260503034504 51 96 5.2 6.1 0.00 0.00 0.00 55 1011.5
20260503034004 52 91 2.6 5.2 0.00 0.00 0.00 54 1011.6
20260503033505 52 91 4.3 6.1 0.00 0.00 0.00 54 1011.6
20260503032504 52 91 3.5 6.1 0.00 0.00 0.00 54 1011.4
20260503031504 53 89 5.2 6.1 0.00 0.00 0.00 53 1011.2
20260503030004 53 87 3.5 6.1 0.00 0.00 0.00 52 1011.1
20260503025505 53 87 3.5 6.1 0.00 0.00 0.00 52 1011.1
20260503025004 53 88 4.3 6.1 0.00 0.00 0.00 52 1010.9
20260503024504 54 89 4.3 7.0 0.00 0.00 0.00 51 1010.8
20260503023504 56 69 5.2 7.0 0.00 0.00 0.00 48 1010.8
20260503023004 56 69 4.3 7.0 0.00 0.00 0.00 48 1010.7